FLOCK 3P-47 (42032 NORAD) Tracking and Keplerian Element Data

This shows tracking and keplerian element data for the satellite.

Feedback or suggestion? Click here.




ElementValue
Catalog42032
NameFLOCK 3P-47
Epoch Orbit23369
Epoch Day119.87783052
Epoch Year2021
RAAN188.5761
Inclination97.3242
Eccentricity0.000555
Argument of Perigee272.8355
Mean Anonmoly87.2249
Mean Motion15.27783482
Decay Rate4.221E-05
L11 42032U 17008CN 21119.87783052 .00004221 00000-0 15823-3 0 9992
L22 42032 97.3242 188.5761 0005550 272.8355 87.2249 15.27783482233695

Live tracking and technical data element details for FLOCK 3P-47 (NORAD 42032). FLOCK 3P-47 can be tracked NOW for your location showing map with azimuth and elevation plus other details from your city location.

Track the satellite on the map from your city or location and see movement details for azimuth, elevation, latitude, longitude, range, height, and movement on the map or in text.







IsCatalogInMostPopularTable: catalog: 42032, numindb: 527
Update: records affected: 1



GetName: 42032 FLOCK 3P-47

Hit Count: updated at: Sat, 25 Sep 2021 23:29:45 GMT